User: anonymous   Login
Location: Rometta
(44.2000°N, 10.0500°E)
Time: 08:01:39
(UTC+00:00)
Language:

RESURS DK-1 - Orbit

View from above orbital plane
View from above orbital plane
View from above satellite
View from above satellite

Ground track
Ground track

The orbit data is extracted from the following two-line orbital elements,

1 29228U 06021A   21103.11398525  .00000103  00000-0  15049-4 0  9990
2 29228  69.9344 145.0802 0005491 326.9243  33.1573 15.02671239817754
Epoch (UTC): 13 April 2021 02:44:08
Eccentricity: 0.0005491
inclination: 69.9344°
perigee height: 555 km
apogee height: 562 km
right ascension of ascending node: 145.0802°
argument of perigee: 326.9243°
revolutions per day: 15.02671239
mean anomaly at epoch: 33.1573°
orbit number at epoch: 81775

The dashed part of the orbit path shows where the satellite is in the earth's shadow,  

DLR